Location: Austin
(30.3000°N, 97.7500°W)
Time: 10:26:48
(UTC-05:00)

Cosmos 1140 Rocket - Pass Details

Date: 26 May 2023
Orbit: 742 x 767 km, 74.1° (Epoch: 30 May)

Event Time Altitude Azimuth Distance (km) Brightness Sun altitude
Rises 21:39:06 0° 207° (SSW) 3,205 6.6 -14.6°
Reaches altitude 10° 21:41:31 10° 212° (SSW) 2,286 5.9 -15.0°
Maximum altitude 21:46:34 51° 288° (WNW) 956 4.4 -15.9°
Drops below altitude 10° 21:51:39 10° 4° (N) 2,306 6.4 -16.8°
Sets 21:54:06 0° 10° (N) 3,236 7.1 -17.2°
